Location: Bijele Vode
(45.2833°N, 16.2000°E)
Time: 03:04:09
(UTC+00:00)

Nauka - Pass Details

Date: 30 September 2021
Orbit: 417 x 423 km, 51.6° (Epoch: 24 October)

Event Time Altitude Azimuth Distance (km) Brightness Sun altitude
Rises 17:27:07 0° 297° (WNW) 2,366 ? -9.6°
Reaches altitude 10° 17:29:20 10° 307° (NW) 1,501 ? -10.0°
Maximum altitude 17:32:27 34° 15° (NNE) 708 ? -10.5°
Enters shadow 17:34:45 16° 75° (ENE) 1,205 ? -10.9°
